Weather History for EIDW - November, 2012

Change the Weather History Date:

Wednesday, November 14, 2012

  Actual Average Record
Temperature  
Mean Temperature 52 °F -  
Max Temperature 56 °F 49 °F 56 °F (2012)
Min Temperature 46 °F 39 °F 30 °F (2010)
Degree Days  
Heating Degree Days 13    
Growing Degree Days 2 (Base 50)    
Moisture  
Dew Point 46 °F    
Average Humidity 81    
Maximum Humidity 94    
Minimum Humidity 67    
Precipitation  
Precipitation 0.00 in 0.09 in - ()
Sea Level Pressure  
Sea Level Pressure 30.18 in    
Wind  
Wind Speed 11 mph ()    
Max Wind Speed 17 mph    
Max Gust Speed -    
Visibility 6.5 miles    
Events Rain    
Averages and records for this station are not official NWS values.
T = Trace of Precipitation, MM = Missing Value Source: Averaged Metar Reports

Daily Weather History Graph

Daily Weather History Graph

Search for Another Location

Airport or City:

Trip Planner

Search our weather history database for the weather conditions in past years. The results will help you decide how hot, cold, wet, or windy it might be!

Date:

Astronomy

Nov. 14, 2012 Rise Set
Actual Time 7:49 AM GMT 4:29 PM GMT
Civil Twilight 7:10 AM GMT 5:08 PM GMT
Nautical Twilight 6:27 AM GMT 5:50 PM GMT
Astronomical Twilight 5:46 AM GMT 6:31 PM GMT
Moon 8:30 AM GMT (11/14) 4:55 PM GMT (11/14)
Length of Visible Light 9h 57m
Length of Day
8h 40m
New Moon, 1% of the Moon is Illuminated
Nov 14
New Moon
Nov 20
First Quarter
Nov 28
Full
Dec 6
Last Quarter
Dec 13
New

Hourly Weather History & Observations

Time (GMT) Temp. Windchill Dew Point Humidity Pressure Visibility Wind Dir Wind Speed Gust Speed Precip Events Conditions
12:00 AM 54 °F - 51 °F 87% 30.11 in 10 mi SW 13.4 mph - - Rain Light Drizzle
12:00 AM 53.6 °F - 51.8 °F 94% 30.09 in 6.2 mi SW 13.8 mph - N/A   Light Drizzle
12:30 AM 53.6 °F - 51.8 °F 94% 30.09 in 6.2 mi SW 17.3 mph - N/A   Mostly Cloudy
1:00 AM 55.4 °F - 50.0 °F 82% 30.09 in 6.2 mi SW 15.0 mph - N/A   Overcast
1:30 AM 55.4 °F - 50.0 °F 82% 30.09 in 6.2 mi SSW 15.0 mph - N/A   Mostly Cloudy
2:00 AM 53.6 °F - 50.0 °F 88% 30.09 in 6.2 mi SSW 13.8 mph - N/A   Mostly Cloudy
2:30 AM 53.6 °F - 50.0 °F 88% 30.12 in 6.2 mi SSW 9.2 mph - N/A   Mostly Cloudy
3:00 AM 53.6 °F - 50.0 °F 88% 30.12 in 6.2 mi SSW 11.5 mph - N/A   Mostly Cloudy
3:30 AM 53.6 °F - 50.0 °F 88% 30.12 in 6.2 mi SSW 12.7 mph - N/A   Mostly Cloudy
4:00 AM 53.6 °F - 50.0 °F 88% 30.12 in 6.2 mi SSW 11.5 mph - N/A   Mostly Cloudy
4:30 AM 53.6 °F - 50.0 °F 88% 30.12 in 6.2 mi SSW 8.1 mph - N/A   Mostly Cloudy
5:00 AM 53.6 °F - 50.0 °F 88% 30.12 in 6.2 mi SW 10.4 mph - N/A   Mostly Cloudy
5:30 AM 53.6 °F - 48.2 °F 82% 30.12 in 6.2 mi SSW 11.5 mph - N/A   Mostly Cloudy
6:00 AM 53 °F - 48 °F 79% 30.16 in 16 mi SW 15.7 mph - -   Partly Cloudy
6:00 AM 51.8 °F - 48.2 °F 88% 30.12 in 6.2 mi SW 13.8 mph - N/A   Mostly Cloudy
6:30 AM 51.8 °F - 46.4 °F 82% 30.15 in 6.2 mi SSW 15.0 mph - N/A Rain Light Rain
7:00 AM 51.8 °F - 46.4 °F 82% 30.15 in 6.2 mi SSW 12.7 mph - N/A   Mostly Cloudy
7:30 AM 51.8 °F - 46.4 °F 82% 30.15 in 6.2 mi SSW 15.0 mph - N/A   Mostly Cloudy
8:00 AM 51.8 °F - 44.6 °F 76% 30.18 in 6.2 mi SSW 10.4 mph - N/A   Mostly Cloudy
8:30 AM 51.8 °F - 44.6 °F 76% 30.18 in 6.2 mi SSW 11.5 mph - N/A   Mostly Cloudy
9:00 AM 51.8 °F - 44.6 °F 76% 30.18 in 6.2 mi South 12.7 mph - N/A   Mostly Cloudy
9:30 AM 53.6 °F - 44.6 °F 72% 30.21 in 6.2 mi SSW 6.9 mph - N/A   Mostly Cloudy
10:00 AM 53.6 °F - 44.6 °F 72% 30.18 in 6.2 mi SSW 11.5 mph - N/A   Mostly Cloudy
10:30 AM 53.6 °F - 46.4 °F 77% 30.21 in 6.2 mi SSW 10.4 mph - N/A   Mostly Cloudy
11:00 AM 53.6 °F - 46.4 °F 77% 30.21 in 6.2 mi SSW 11.5 mph - N/A   Mostly Cloudy
11:30 AM 53.6 °F - 46.4 °F 77% 30.18 in 6.2 mi SSW 15.0 mph - N/A   Mostly Cloudy
12:00 PM 55.4 °F - 48.2 °F 77% 30.18 in 6.2 mi SSW 16.1 mph - N/A   Mostly Cloudy
12:30 PM 55.4 °F - 46.4 °F 72% 30.18 in 6.2 mi SW 16.1 mph - N/A   Mostly Cloudy
1:00 PM 55.4 °F - 46.4 °F 72% 30.18 in 6.2 mi SW 11.5 mph - N/A   Mostly Cloudy
1:30 PM 55.4 °F - 46.4 °F 72% 30.18 in 6.2 mi SW 15.0 mph - N/A   Mostly Cloudy
2:00 PM 55.4 °F - 44.6 °F 67% 30.18 in 6.2 mi SW 12.7 mph - N/A   Mostly Cloudy
2:30 PM 55.4 °F - 44.6 °F 67% 30.21 in 6.2 mi SW 13.8 mph - N/A   Mostly Cloudy
3:00 PM 55.4 °F - 44.6 °F 67% 30.18 in 6.2 mi SW 11.5 mph - N/A   Mostly Cloudy
3:30 PM 53.6 °F - 44.6 °F 72% 30.18 in 6.2 mi SW 11.5 mph - N/A   Mostly Cloudy
4:00 PM 53.6 °F - 44.6 °F 72% 30.21 in 6.2 mi SW 10.4 mph - N/A   Mostly Cloudy
4:30 PM 51.8 °F - 44.6 °F 76% 30.21 in 6.2 mi SW 8.1 mph - N/A   Mostly Cloudy
5:00 PM 51.8 °F - 44.6 °F 76% 30.21 in 6.2 mi SW 8.1 mph - N/A   Mostly Cloudy
5:30 PM 51.8 °F - 44.6 °F 76% 30.21 in 6.2 mi SW 5.8 mph - N/A   Scattered Clouds
6:00 PM 49 °F - 44 °F 76% 30.24 in 25 mi SSW 4.5 mph - -   Scattered Clouds
6:00 PM 50.0 °F - 44.6 °F 82% 30.21 in 6.2 mi SSW 4.6 mph - N/A   Scattered Clouds
6:30 PM 48.2 °F - 44.6 °F 87% 30.21 in 6.2 mi SSW 4.6 mph - N/A   Scattered Clouds
7:00 PM 48.2 °F - 44.6 °F 87% 30.21 in 6.2 mi SW 5.8 mph - N/A   Scattered Clouds
7:30 PM 48.2 °F - 44.6 °F 87% 30.24 in 6.2 mi SW 4.6 mph - N/A   Scattered Clouds
8:00 PM 48.2 °F - 44.6 °F 87% 30.24 in 6.2 mi WSW 5.8 mph - N/A   Mostly Cloudy
8:30 PM 50.0 °F - 44.6 °F 82% 30.24 in 6.2 mi SW 4.6 mph - N/A   Mostly Cloudy
9:00 PM 50.0 °F - 44.6 °F 82% 30.24 in 6.2 mi SW 4.6 mph - N/A   Mostly Cloudy
9:30 PM 48.2 °F - 44.6 °F 87% 30.24 in 6.2 mi WSW 4.6 mph - N/A   Mostly Cloudy
10:00 PM 50.0 °F - 44.6 °F 82% 30.24 in 6.2 mi WSW 4.6 mph - N/A   Mostly Cloudy
10:30 PM 48.2 °F - 42.8 °F 82% 30.24 in 6.2 mi SW 5.8 mph - N/A   Scattered Clouds
11:00 PM 48.2 °F - 42.8 °F 82% 30.24 in 6.2 mi West 6.9 mph - N/A   Partly Cloudy
11:30 PM 46.4 °F 43.5 °F 42.8 °F 87% 30.24 in 6.2 mi West 5.8 mph - N/A   Mostly Cloudy